Stafford, VA

9:46 PM EDT on October 19, 2017 (GMT -0400)
Stafford

Weather History for KRMN - December, 2013

Change the Weather History Date:

Sunday, December 29, 2013

  Actual Average (KNYG) Record (KNYG)
Temperature  
Mean Temperature 42 °F -  
Max Temperature 49 °F 42 °F 68 °F (1996)
Min Temperature 35 °F 27 °F 18 °F (2000)
Degree Days  
Heating Degree Days 23    
Moisture  
Dew Point 42 °F    
Average Humidity 94    
Maximum Humidity 100    
Minimum Humidity 45    
Precipitation  
Precipitation 1.36 in - - ()
Sea Level Pressure  
Sea Level Pressure 29.87 in    
Wind  
Wind Speed 1 mph (WNW)    
Max Wind Speed 12 mph    
Max Gust Speed 17 mph    
Visibility 7 miles    
Events Rain    
Averages and records for this station are not official NWS values.
T = Trace of Precipitation, MM = Missing Value Source: NWS Daily Summary

Daily Weather History Graph

Daily Weather History Graph

Search for Another Location

Airport or City:

Trip Planner

Search our weather history database for the weather conditions in past years. The results will help you decide how hot, cold, wet, or windy it might be!

Date:

Astronomy

Dec. 29, 2013 Rise Set
Actual Time 7:26 AM EST 4:57 PM EST
Civil Twilight 6:56 AM EST 5:27 PM EST
Nautical Twilight 6:23 AM EST 6:00 PM EST
Astronomical Twilight 5:51 AM EST 6:32 PM EST
Moon 4:08 AM EST (12/29) 2:33 PM EST (12/29)
Length of Visible Light 10h 30m
Length of Day
9h 31m
Waning Crescent, 11% of the Moon is Illuminated
Dec 29
Waning Crescent
Jan 1
New
Jan 7
First Quarter
Jan 15
Full
Jan 24
Last Quarter

Hourly Weather History & Observations

Time (EST) Temp. Windchill Dew Point Humidity Pressure Visibility Wind Dir Wind Speed Gust Speed Precip Events Conditions
12:15 AM 42.4 °F - 29.8 °F 61% 30.15 in 10.0 mi Calm Calm - N/A   Clear
12:35 AM 41.9 °F - 29.7 °F 62% 30.15 in 10.0 mi Calm Calm - N/A   Scattered Clouds
12:55 AM 43.2 °F - 30.7 °F 62% 30.15 in 10.0 mi Calm Calm - N/A   Mostly Cloudy
1:15 AM 45.5 °F - 30.2 °F 55% 30.15 in 10.0 mi Calm Calm - N/A   Overcast
1:35 AM 45.7 °F - 30.0 °F 54% 30.14 in 10.0 mi Calm Calm - N/A   Overcast
1:55 AM 46.8 °F - 29.5 °F 51% 30.14 in 10.0 mi Calm Calm - N/A   Overcast
2:15 AM 48.4 °F - 29.3 °F 48% 30.14 in 10.0 mi SW 3.5 mph - N/A   Overcast
2:35 AM 49.1 °F - 28.8 °F 45% 30.14 in 10.0 mi Calm Calm - N/A Rain Light Rain
2:55 AM 47.3 °F - 34.2 °F 60% 30.15 in 10.0 mi Calm Calm - 0.01 in Rain Rain
3:15 AM 45.7 °F - 37.2 °F 72% 30.15 in 10.0 mi Calm Calm - 0.02 in Rain Rain
3:35 AM 43.3 °F - 41.7 °F 94% 30.12 in 10.0 mi Calm Calm - 0.03 in Rain Rain
3:55 AM 43.0 °F - 43.0 °F 100% 30.12 in 10.0 mi Calm Calm - 0.05 in Rain Light Rain
4:15 AM 42.4 °F - 42.4 °F 100% 30.12 in 5.0 mi Calm Calm - 0.03 in Rain Rain
4:35 AM 42.1 °F - 42.1 °F 100% 30.11 in 5.0 mi Calm Calm - 0.06 in Rain Rain
4:55 AM 42.3 °F - 42.3 °F 100% 30.08 in 7.0 mi Calm Calm - 0.09 in Rain Rain
5:15 AM 42.1 °F - 42.1 °F 100% 30.06 in 4.0 mi Calm Calm - 0.06 in Rain Heavy Rain
5:35 AM 41.9 °F - 41.9 °F 100% 30.06 in 2.5 mi Calm Calm - 0.11 in Rain Rain
5:55 AM 41.9 °F - 41.9 °F 100% 30.05 in 4.0 mi Calm Calm - 0.12 in Rain Light Rain
6:15 AM 42.1 °F - 42.1 °F 100% 30.05 in 2.5 mi Calm Calm - 0.04 in Rain Heavy Rain
6:35 AM 42.1 °F 40.2 °F 42.1 °F 100% 30.01 in 3.0 mi NE 3.5 mph - 0.11 in Rain Rain
6:55 AM 41.9 °F - 41.9 °F 100% 30.00 in 4.0 mi Calm Calm - 0.14 in Rain Rain
7:15 AM 42.1 °F 40.2 °F 42.1 °F 100% 29.99 in 4.0 mi ENE 3.5 mph - 0.02 in Rain Light Rain
7:35 AM 41.9 °F 39.0 °F 41.9 °F 100% 29.97 in 5.0 mi ENE 4.6 mph - 0.04 in Rain Light Rain
7:55 AM 42.1 °F 39.2 °F 42.1 °F 100% 29.95 in 4.0 mi ENE 4.6 mph - 0.05 in Rain Light Rain
8:15 AM 42.1 °F - 42.1 °F 100% 29.96 in 2.5 mi Calm Calm - 0.05 in Rain Heavy Rain
8:35 AM 42.3 °F - 42.3 °F 100% 29.93 in 1.2 mi Calm Calm - 0.14 in   Overcast
8:55 AM 42.3 °F - 42.3 °F 100% 29.92 in 1.5 mi Calm Calm - 0.22 in Rain Heavy Rain
9:15 AM 42.8 °F - 42.8 °F 100% 29.89 in 2.0 mi Calm Calm - 0.05 in Rain Heavy Rain
9:35 AM 43.7 °F 41.1 °F 43.7 °F 100% 29.87 in 3.0 mi East 4.6 mph - 0.12 in Rain Rain
9:55 AM 43.9 °F 39.3 °F 43.9 °F 100% 29.84 in 4.0 mi East 8.1 mph - 0.17 in Rain Rain
10:15 AM 44.1 °F 41.5 °F 44.1 °F 100% 29.81 in 4.0 mi East 4.6 mph - 0.05 in Rain Rain
10:35 AM 44.6 °F 43.1 °F 44.6 °F 100% 29.79 in 4.0 mi East 3.5 mph - 0.10 in Rain Heavy Rain
10:55 AM 44.6 °F - 44.6 °F 100% 29.74 in 0.8 mi Calm Calm - 0.23 in Rain Light Rain
11:15 AM 44.8 °F - 44.8 °F 100% 29.72 in 3.0 mi Calm Calm - 0.09 in Rain Heavy Rain
11:35 AM 45.1 °F 40.8 °F 45.1 °F 100% 29.74 in 3.0 mi WNW 8.1 mph 17.3 mph 0.16 in Rain Heavy Rain
11:55 AM 45.1 °F 39.5 °F 45.1 °F 100% 29.72 in 5.0 mi WNW 11.5 mph - 0.18 in Rain Heavy Rain
12:15 PM 44.8 °F 39.4 °F 44.8 °F 100% 29.70 in 2.5 mi NW 10.4 mph - 0.04 in Rain Heavy Rain
12:35 PM 45.5 °F 43.2 °F 45.5 °F 100% 29.68 in 5.0 mi NNW 4.6 mph - 0.08 in Rain Rain
12:55 PM 46.2 °F - 46.2 °F 100% 29.66 in 7.0 mi Calm Calm - 0.09 in Rain Light Rain
1:15 PM 46.6 °F - 46.6 °F 100% 29.64 in 10.0 mi Calm Calm - 0.01 in   Drizzle
1:35 PM 47.3 °F - 47.3 °F 100% 29.61 in 10.0 mi Calm Calm - 0.01 in   Overcast
1:55 PM 47.3 °F - 47.3 °F 100% 29.65 in 10.0 mi SW 3.5 mph - 0.01 in   Overcast
2:15 PM 48.7 °F - 48.7 °F 100% 29.64 in 10.0 mi West 4.6 mph - N/A   Overcast
2:35 PM 48.6 °F - 48.6 °F 100% 29.63 in 10.0 mi WSW 6.9 mph - N/A   Overcast
2:55 PM 48.7 °F - 48.7 °F 100% 29.63 in 10.0 mi West 4.6 mph - N/A   Overcast
3:15 PM 48.6 °F - 48.6 °F 100% 29.62 in 10.0 mi West 3.5 mph - N/A   Overcast
3:35 PM 48.6 °F - 48.6 °F 100% 29.64 in 10.0 mi West 5.8 mph - N/A   Overcast
3:55 PM 48.6 °F - 48.6 °F 100% 29.66 in 10.0 mi WSW 8.1 mph - N/A   Overcast
4:15 PM 48.2 °F - 48.2 °F 100% 29.66 in 10.0 mi WSW 3.5 mph - N/A   Overcast
4:35 PM 48.2 °F - 48.2 °F 100% 29.67 in 10.0 mi Calm Calm - N/A   Overcast
4:55 PM 48.2 °F - 48.2 °F 100% 29.69 in 10.0 mi Calm Calm - N/A   Overcast
5:15 PM 47.3 °F - 47.3 °F 100% 29.69 in 10.0 mi Calm Calm - N/A   Overcast
5:35 PM 47.5 °F - 47.5 °F 100% 29.70 in 10.0 mi Calm Calm - N/A   Overcast
5:55 PM 46.6 °F - 46.6 °F 100% 29.71 in 10.0 mi Calm Calm - N/A   Mostly Cloudy
6:15 PM 45.0 °F - 45.0 °F 100% 29.73 in 1.2 mi Calm Calm - N/A   Scattered Clouds
6:35 PM 43.3 °F - 43.3 °F 100% 29.75 in 1.0 mi Calm Calm - N/A   Mostly Cloudy
6:55 PM 43.9 °F 41.3 °F 43.9 °F 100% 29.77 in 10.0 mi West 4.6 mph - N/A   Scattered Clouds
7:15 PM 44.1 °F - 44.1 °F 100% 29.78 in 10.0 mi Calm Calm - N/A   Clear
7:35 PM 42.6 °F - 42.6 °F 100% 29.80 in 10.0 mi Calm Calm - N/A   Clear
7:55 PM 45.3 °F - 45.3 °F 100% 29.82 in 10.0 mi Calm Calm - N/A   Clear
8:15 PM 42.8 °F 37.5 °F 42.8 °F 100% 29.82 in 10.0 mi WNW 9.2 mph - N/A   Clear
8:35 PM 44.6 °F - 44.6 °F 100% 29.84 in 10.0 mi Calm Calm - N/A   Clear
8:55 PM 41.0 °F 36.4 °F 41.0 °F 100% 29.84 in 10.0 mi NW 6.9 mph - N/A   Clear
9:15 PM 45.0 °F - 44.8 °F 99% 29.86 in 10.0 mi Calm Calm - N/A   Clear
9:35 PM 40.1 °F 38.0 °F 40.1 °F 100% 29.86 in 10.0 mi NW 3.5 mph - N/A   Clear
9:55 PM 41.0 °F - 41.0 °F 100% 29.86 in 10.0 mi Calm Calm - N/A   Clear
10:15 PM 37.9 °F - 37.9 °F 100% 29.87 in 10.0 mi Calm Calm - N/A   Clear
10:35 PM 36.9 °F - 36.9 °F 100% 29.86 in 10.0 mi Calm Calm - N/A   Clear
10:55 PM 38.3 °F - 38.3 °F 100% 29.87 in 10.0 mi Calm Calm - N/A   Clear
11:15 PM 37.0 °F - 37.0 °F 100% 29.89 in 4.0 mi Calm Calm - N/A   Clear
11:35 PM 35.2 °F - 35.2 °F 100% 29.89 in 7.0 mi Calm Calm - N/A   Clear
11:55 PM 36.5 °F - 36.5 °F 100% 29.89 in 7.0 mi Calm Calm - N/A   Clear